Location: Woodstock
(43.1330°N, 80.7500°W)
Time: 09:39:11
(UTC-05:00)

Daily predictions for brighter satellites

Satellite Brightness Start Highest point End
(mag) Time Altitude Azimuth Time Altitude Azimuth Time Altitude Azimuth
USA 234 3.8 17:10:16 10° ENE 17:16:30 45° SE 17:22:41 10° SSW
Meteor 2-19 Rocket 4.5 17:11:44 10° N 17:17:49 85° E 17:23:53 10° S
CRYOSAT 2 4.5 17:13:19 10° NNE 17:18:10 58° E 17:22:58 10° S
YAOGAN 1 3.1 17:16:01 10° SE 17:19:58 36° ENE 17:23:57 10° N
PAYLOAD A 3.9 17:16:32 10° SSE 17:21:22 69° ENE 17:26:26 10° N
Cosmos 1500 3.7 17:20:19 10° N 17:23:58 39° ENE 17:27:35 10° SSE
Cosmos 1743 4.0 17:23:21 10° NNE 17:26:22 21° ENE 17:29:21 10° SE
CZ-2C R/B 2.6 17:22:32 10° SSE 17:27:26 53° ENE 17:32:28 10° N
NOSS 3-4 (A) 4.3 17:22:11 10° NNW 17:28:36 38° NE 17:35:22 10° ESE
NOSS 3-4 (C) 4.3 17:22:18 10° NNW 17:28:42 38° NE 17:35:27 10° ESE
IRS-1A Rocket 4.4 17:23:27 10° SSE 17:28:57 82° WSW 17:34:31 10° NNW
Nadezhda 3 Rocket 4.5 17:24:23 10° SSE 17:30:04 39° E 17:35:48 10° NNE
Cosmos 1455 Rocket 3.3 17:30:42 10° N 17:35:08 78° W 17:39:34 10° S
NOSS 3-3 (A) 4.2 17:29:56 10° SW 17:36:08 80° NW 17:42:53 10° NE
NOSS 3-3 (C) 4.2 17:30:02 10° SW 17:36:14 81° NW 17:42:59 10° NE
SL-8 R/B 4.0 17:34:51 10° W 17:39:34 59° NNW 17:43:47 13° ENE
EP 1 4.1 17:40:29 10° SSW 17:43:04 84° SE 17:45:16 14° NE
ATLAS 2AS CENTAUR R/B 4.3 17:35:56 10° NW 17:43:28 45° WSW 17:50:29 10° S
Cosmos 1484 Rocket 3.6 17:42:47 10° SE 17:45:58 27° ENE 17:49:08 10° NNE
ERBS 4.4 17:44:44 10° N 17:46:25 13° NNE 17:47:17 12° NE
Cosmos 1809 Rocket 4.4 17:42:54 10° N 17:49:02 69° E 17:55:07 10° SSE
Cosmos 1844 Rocket 4.3 17:44:25 10° WSW 17:49:17 30° NW 17:54:13 10° N
SJ-7 4.4 17:45:48 10° SSE 17:50:01 73° ENE 17:54:16 10° N
SMAP 3.0 17:47:24 10° SSE 17:52:04 87° ENE 17:56:44 10° NNW
BREEZE-M R/B 4.5 17:42:45 10° WSW 17:54:47 80° NNW 17:59:07 17° ENE
TIMED 4.4 17:50:33 10° SSW 17:54:53 75° ESE 17:59:17 10° NNE
Cosmos 2369 Rocket 4.1 17:54:40 10° ESE 17:54:58 10° ESE 17:54:58 10° ESE
CORIOLIS 4.1 17:50:43 10° SSE 17:56:07 83° ENE 18:01:32 10° NNW
Cosmos 1975 3.3 17:52:19 10° NNW 17:56:21 65° W 18:00:20 10° S
SL-24 DEB 4.2 17:51:54 10° N 17:56:36 64° E 18:01:14 10° S
Meteor 1-13 Rocket 4.2 17:57:41 10° S 18:03:20 67° E 18:09:09 10° NNE
Meteor 2-4 Rocket 4.1 17:59:01 10° SSE 18:03:54 37° E 18:08:48 10° NNE
Okean 1-7 Rocket 3.6 17:59:53 10° S 18:04:17 57° E 18:08:40 10° NNE
Cosmos 1812 4.4 18:00:52 10° SW 18:04:24 35° WNW 18:07:59 10° N
Cosmos 1371 Rocket 4.3 17:59:18 10° S 18:04:24 47° ESE 18:08:53 13° NNE
CZ-4 R/B 4.4 18:02:28 10° SSE 18:06:38 87° ENE 18:10:49 10° NNW
CZ-4 R/B 2.6 18:04:03 10° S 18:08:03 45° W 18:12:01 10° NNW
Tiangong 1 0.9 18:05:01 10° W 18:08:04 80° S 18:09:19 32° E
ISS -1.4 18:07:38 10° NW 18:10:02 18° N 18:10:48 17° NNE
Cosmos 1934 Rocket 4.2 18:05:47 10° N 18:11:45 46° ENE 18:17:45 10° SSE
COSMOS 2487 4.2 18:08:51 10° NW 18:12:11 36° WSW 18:15:29 10° S
SPOT 3 Rocket 4.1 18:07:21 10° S 18:12:28 61° WSW 18:17:35 10° NNW
MSX 3.8 18:07:08 10° SSE 18:12:53 88° E 18:18:40 10° NNW
BREEZE-M DEB (TANK) 4.3 18:07:22 10° WNW 18:14:08 37° N 18:15:37 25° NE
Cosmos 1535 Rocket 4.4 18:15:47 10° N 18:22:04 69° E 18:28:13 10° SSE
Cosmos 1606 Rocket 3.8 18:18:36 10° N 18:22:56 46° ENE 18:27:13 10° SSE
NOSS 7 (E) 4.2 18:23:36 10° SSW 18:27:02 75° SE 18:27:49 48° NE
NOSS 2-1 (D) 3.5 18:23:14 10° SW 18:27:03 70° NW 18:29:25 25° NNE
Cosmos 2297 4.1 18:21:40 10° SW 18:27:15 62° WNW 18:32:40 11° NNE
NOSS 2-1 (C) 3.5 18:23:53 10° SW 18:27:44 71° NW 18:30:04 26° NNE
COSMO-SKYMED 1 2.4 18:28:03 15° NNE 18:31:35 76° ESE 18:35:55 10° S
Cosmos 2239 Rocket 4.4 18:27:41 10° N 18:33:55 86° E 18:40:04 10° S
Cosmos 1190 Rocket 3.9 18:28:58 10° NNW 18:34:11 61° ENE 18:39:20 10° SSE
Cosmos 2278 Rocket 3.9 18:31:07 10° WSW 18:35:56 28° NW 18:40:46 10° N
GEOS 3 Rocket 3.9 18:36:10 35° ENE 18:37:25 42° NE 18:42:13 10° NNW
Cosmos 921 Rocket 3.9 18:33:35 10° SW 18:37:43 48° WNW 18:41:33 12° N
Cosmos 1666 2.5 18:34:22 10° N 18:38:15 80° E 18:42:08 10° S
NOSS 7 (D) 4.2 18:34:53 10° SW 18:38:20 89° SE 18:38:44 68° NE
Cosmos 1025 Rocket 2.9 18:34:49 10° S 18:39:12 87° E 18:42:27 18° N
IDEFIX/ARIANE 42P 4.4 18:39:26 10° SSW 18:44:03 32° W 18:48:41 10° NNW
BREEZE-M DEB (TANK) 3.8 18:43:57 10° WNW 18:45:01 20° NNW 18:45:01 20° NNW
NOSS 2-1 (E) 4.0 18:42:41 10° SW 18:46:31 52° NW 18:48:16 31° NNE
Cosmos 1821 Rocket 4.0 18:40:24 10° N 18:46:31 80° W 18:52:36 10° S
Cosmos 1833 Rocket 3.8 18:45:26 10° NW 18:50:46 45° WSW 18:56:04 10° S
Cosmos 1605 Rocket 3.8 18:51:02 10° N 18:57:20 71° E 19:03:29 10° SSE
Cosmos 2058 Rocket 4.3 18:54:22 10° N 19:02:42 13° SSE 19:03:15 10° SSE
CZ-3B DEB 3.6 18:54:33 10° W 18:59:30 43° N 19:04:31 27° NE
USA 234 3.6 18:56:14 29° NE 18:59:37 60° NNW 19:06:00 10° WSW
Cosmos 2082 Rocket 4.0 18:55:06 10° NW 19:00:04 32° WSW 19:05:03 10° SSW
Meteor 1-28 Rocket 3.5 19:06:27 64° WSW 19:06:27 64° WSW 19:09:53 10° SSW
BREEZE M DEB (TANK) 2.9 19:08:00 10° WSW 19:13:17 53° WNW 19:13:17 53° WNW
NOSS 3-4 (A) 4.4 19:12:59 10° NW 19:19:51 57° WSW 19:27:08 10° SSE
NOSS 3-4 (C) 4.3 19:13:04 10° NW 19:19:58 58° WSW 19:27:15 10° SSE
Cosmos 407 Rocket 4.0 19:19:17 10° NNW 19:24:20 57° WSW 19:29:23 10° S
Cosmos 2056 Rocket 4.5 19:22:30 10° SW 19:27:36 44° WNW 19:29:42 30° NNW
BREEZE M DEB (TANK) 3.9 19:25:30 10° WNW 19:29:52 79° SSW 19:34:22 37° SE
Cosmos 676 Rocket 4.3 19:30:42 10° NNW 19:35:31 63° W 19:35:31 63° W
Cosmos 1727 Rocket 4.0 19:30:32 10° SSW 19:36:44 77° W 19:38:31 49° N
Cosmos 2369 Rocket 2.9 19:33:00 10° SSW 19:36:50 45° S 19:36:50 45° S
FALCON 9 R/B 3.5 19:30:24 10° W 19:47:41 48° SSW 19:49:06 43° SSE
